Flag for U.S.A. Weather past 2 weeks in Jackson, Mississippi, U.S.A.

Now
58 °F

Light rain. Overcast.


Feels Like: 56 °F
Forecast: 55 / 60 °F
Wind: 10 mph from North

Location: Jackson International Airport

Current Time: Apr 28, 2015 at 11:00:45 AM

Latest Report: Apr 28, 2015 at 9:54 AM


Visibility: 10 mi

Pressure: 29.89 "Hg

Humidity: 72%

Dew point: 49 °F

Location of JacksonLocation

Historic Weather in Jackson — Graph

°F

Jackson temperature yesterday

Maximum temperature yesterday: 69 °F (at 12:54 AM)
Minimum temperature yesterday: 58 °F (at 5:54 AM)
Average temperature yesterday: 63 °F

Past Weeks' High & Low Weather Summary

 TemperatureHumidityPressure
High87 °F (Apr 26, 2:54 PM)97% (Apr 15, 4:54 AM)30.08 "Hg (Apr 15, 4:54 AM)
Low50 °F (Apr 21, 3:54 AM)24% (Apr 21, 2:54 PM)29.65 "Hg (Apr 25, 5:54 PM)
Average68 °F77%29.90 "Hg
* Reported Apr 13 9:54 AM — Apr 28 9:54 AM, Jackson, Weather by CustomWeather, © 2015

Note: Actual official high and low records may vary slightly from our data, if they occured in-between our weather recording intervals... More about our weather records

Advertising

Jackson weather history for previous 24 hours

 ConditionsComfort  
Time TempWeatherWind HumidityBarometerVisibility
9:54 AM
Tue, Apr 28
58 °FLight rain. Overcast.10 mph72%29.89 "Hg10 mi
8:54 AM58 °FMostly cloudy.9 mph65%29.87 "Hg10 mi
7:54 AM58 °FMostly cloudy.10 mph62%29.86 "Hg10 mi
6:54 AM58 °FOvercast.8 mph60%29.85 "Hg10 mi
5:54 AM58 °FPassing clouds.9 mph62%29.80 "Hg10 mi
4:54 AM59 °FOvercast.7 mph62%29.82 "Hg10 mi
3:54 AM59 °FMostly cloudy.7 mph62%29.83 "Hg10 mi
2:54 AM59 °FMostly cloudy.7 mph64%29.84 "Hg10 mi
1:54 AM59 °FOvercast.10 mph67%29.85 "Hg10 mi
12:54 AM59 °FOvercast.7 mph72%29.86 "Hg10 mi
11:54 PM
Mon, Apr 27
58 °FClear.5 mph75%29.86 "Hg10 mi
10:54 PM59 °FPassing clouds.No wind78%29.88 "Hg10 mi
9:54 PM61 °FPassing clouds.5 mph70%29.87 "Hg10 mi
8:54 PM63 °FPassing clouds.9 mph65%29.83 "Hg10 mi
7:54 PM63 °FPartly sunny.8 mph68%29.80 "Hg10 mi
6:54 PM65 °FOvercast.8 mph63%29.77 "Hg10 mi
5:54 PM66 °FOvercast.10 mph59%29.79 "Hg10 mi
4:54 PM66 °FOvercast.10 mph59%29.79 "Hg10 mi
3:54 PM68 °FOvercast.12 mph51%29.81 "Hg10 mi
2:54 PM68 °FPartly sunny.14 mph51%29.82 "Hg10 mi
1:54 PM67 °FPartly sunny.17 mph55%29.82 "Hg10 mi
12:54 PM64 °FPartly sunny.16 mph63%29.85 "Hg10 mi
11:54 AM59 °FBroken clouds.8 mph75%29.83 "Hg10 mi
Weather by CustomWeather, © 2015

See weather overviewHow to use our weather pages